Погода в Яньчэне

Китай     33°23′18″N   120°08′16″E
темп.,
°C
ветер,
м/с
пор.,
м/с
влажн.,
%
обл.,
%
осадки,
мм/ч
давл.,
гПа
погр.,
м
28 июня, вт
вт2823:00+29ю31075100 1.9 1000315
02:00+28ююз51476100 2.0 998568
05:00+27ююз41279100 0.2 999490
08:00+29юз51072100 3.3 999769
11:00+32зюз61061100 1.6 9981214
14:00+27юз51482100 3.7 9981108
17:00+30зюз7127490 0.6 9981230
20:00+27ююз38820 0.8 999192
29 июня, ср
ср2923:00+26ююз39850 0.0 1000211
02:00+25ююз3889100 0.0 1000211
05:00+25ю35905 0.0 100097
08:00+30ююз576497 0.0 1001716
11:00+35юз5547100 0.0 10021887
14:00+37зюз4435100 0.0 10002482
17:00+31в686099 0.0 1000277
20:00+25ююв36826 2.6 1002192
30 июня, чт
чт3023:00+25ю278985 0.7 1004247
02:00+25ю2489100 1.1 1003150
05:00+25ююв51088100 0.0 1004411
08:00+26ююв51084100 0.7 1005575
11:00+32ю6755100 0.0 10051367
14:00+34ю674899 0.4 10041970
17:00+32ююв79538 0.2 10041486
20:00+28юв48740 0.5 1006318
1 июля, пт
пт123:00+26ююв51279100 0.6 1007497
02:00+25ююв41080100 0.9 1007448
05:00+26юв51277100 0.0 1007570
08:00+29ююв71164100 0.0 1009852
11:00+33ююв794775 0.0 10081524
14:00+31ююв685485 0.0 10071282
17:00+27вюв6117796 0.0 1007503
20:00+26юв7138265 0.0 1008481
2 июля, сб
сб223:00+25юв6138891 0.0 1009535
02:00+23юв4119593 0.0 1008419
05:00+23вюв41096100 0.0 1008382
08:00+27вюв6969100 0.0 1008758
11:00+31вюв785493 0.0 10081358
14:00+31в895656 0.0 10061300
17:00+28в686597 0.0 1006851
20:00+25в498742 0.0 1006432